Location: *
(49.5667°N, 1.3667°W)
Time: 22:18:13
(UTC+00:00)

Cosmos 1674 - Pass Details

Date: 20 September 2019
Orbit: 495 x 519 km, 82.5° (Epoch: 20 October)

Event Time Altitude Azimuth Distance (km) Brightness Sun altitude
Rises 20:51:35 0° 341° (NNW) 2,599 7.1 -25.5°
Reaches altitude 10° 20:53:52 10° 330° (NNW) 1,708 6.2 -25.8°
Maximum altitude 20:57:08 29° 269° (W) 933 4.4 -26.3°
Enters shadow 20:57:29 29° 258° (WSW) 945 4.3 -26.3°
